Location: Unspecified
(50.7693°N, 0.0000°E)
Time: 20:41:34
(UTC+00:00)

Vanguard 1 Rocket - Pass Details

Date: 20 June 2019
Orbit: 651 x 4225 km, 34.3° (Epoch: 15 July)

Event Time Altitude Azimuth Distance (km) Brightness Sun altitude
Rises 15:02:14 0° 195° (SSW) 7,940 12.5 45.8°
Reaches altitude 10° 15:12:08 10° 175° (S) 6,189 11.9 44.4°
Maximum altitude 15:19:42 14° 151° (SSE) 5,107 11.2 43.2°
Drops below altitude 10° 15:25:42 10° 125° (SE) 4,757 10.9 42.3°
Sets 15:31:10 0° 102° (ESE) 5,067 10.8 41.5°
